This is the latest recevied weather packets stored in our database for station/object N3AVN. If no packets are shown the sender has not sent any weather packets the latest 10 day(s).
| Time | Temp. | Humidity | Pressure | Rain* | Wind** | Luminosity | Snow |
|---|---|---|---|---|---|---|---|
| 1777923474 | 22.78° C | 32% | 1006.6 hPa | 0 mm | - | 493 W/m² | - |
| 1777923172 | 23.33° C | 32% | 1006.7 hPa | 0 mm | - | 499 W/m² | - |
| 1777922870 | 22.78° C | 31% | 1006.8 hPa | 0 mm | - | 456 W/m² | - |
| 1777922568 | 22.78° C | 31% | 1006.8 hPa | 0 mm | - | 586 W/m² | - |
| 1777922267 | 23.33° C | 32% | 1006.6 hPa | 0 mm | - | 502 W/m² | - |
| 1777921963 | 22.78° C | 32% | 1006.6 hPa | 0 mm | - | 630 W/m² | - |
| 1777921659 | 23.33° C | 33% | 1006.9 hPa | 0 mm | - | 615 W/m² | - |
| 1777921355 | 23.33° C | 31% | 1006.7 hPa | 0 mm | - | 596 W/m² | - |
| 1777921052 | 22.22° C | 31% | 1006.8 hPa | 0 mm | - | 632 W/m² | - |
| 1777920749 | 22.22° C | 32% | 1006.9 hPa | 0 mm | - | 606 W/m² | - |
| 1777920445 | 22.78° C | 31% | 1006.7 hPa | 0 mm | - | 654 W/m² | - |
| 1777920141 | 22.78° C | 33% | 1006.7 hPa | 0 mm | - | 670 W/m² | - |
| 1777919837 | 22.22° C | 32% | 1006.9 hPa | 0 mm | - | 601 W/m² | - |
| 1777919534 | 22.22° C | 31% | 1006.8 hPa | 0 mm | - | 135 W/m² | - |
| 1777919232 | 22.78° C | 32% | 1007.1 hPa | 0 mm | - | 586 W/m² | - |
| 1777918929 | 22.78° C | 32% | 1007.1 hPa | 0 mm | - | 673 W/m² | - |
| 1777918627 | 22.78° C | 31% | 1007.1 hPa | 0 mm | - | 659 W/m² | - |
| 1777918324 | 21.67° C | 34% | 1007.2 hPa | 0 mm | - | 670 W/m² | - |
| 1777918023 | 22.22° C | 32% | 1007.4 hPa | 0 mm | - | 702 W/m² | - |
| 1777917721 | 22.78° C | 31% | 1007.2 hPa | 0 mm | - | 653 W/m² | - |
| 1777917418 | 22.78° C | 32% | 1007.2 hPa | 0 mm | - | 453 W/m² | - |
| 1777917114 | 22.22° C | 32% | 1007.4 hPa | 0 mm | - | 645 W/m² | - |
| 1777916813 | 21.67° C | 32% | 1007.5 hPa | 0 mm | - | 494 W/m² | - |
| 1777916509 | 21.67° C | 32% | 1007.5 hPa | 0 mm | - | 626 W/m² | - |
| 1777916206 | 21.67° C | 35% | 1007.6 hPa | 0 mm | - | 703 W/m² | - |
* Rain latest hour (hover to see other rain measurements)
** Current wind speed in m/s (hover to see current wind gust speed)